EW2348 Weather Reports


Display with metric or nautical units.
time (UTC)temp
F
wind
direction
speed
MPH
gust
MPH
rain 1hr
in
rain 24hr
in
rain mn
in
humidity
%
barometer
mb
20170423053233 45 276 1.0 8.0 0.00 0.04 0.00 79 1009.0
20170423053132 45 276 1.0 8.0 0.00 0.04 0.00 79 1008.9
20170423053032 45 276 2.0 8.0 0.00 0.04 0.00 79 1008.9
20170423052833 45 276 3.0 7.0 0.00 0.04 0.00 79 1008.7
20170423052732 45 272 2.0 7.0 0.00 0.04 0.00 79 1008.8
20170423052432 45 270 3.0 7.0 0.00 0.04 0.00 79 1008.8
20170423052332 45 270 4.0 7.0 0.00 0.04 0.00 79 1009.0
20170423052233 45 272 3.0 7.0 0.00 0.04 0.00 79 1009.0
20170423052133 45 272 2.0 7.0 0.00 0.04 0.00 79 1009.1
20170423052033 45 275 4.0 7.0 0.00 0.04 0.00 80 1009.1
20170423051932 45 276 3.0 7.0 0.00 0.04 0.00 80 1009.1
20170423051733 45 287 3.0 6.0 0.00 0.04 0.00 80 1009.0
20170423051633 45 279 1.0 6.0 0.00 0.04 0.00 80 1009.1
20170423051432 45 279 2.0 6.0 0.00 0.04 0.00 80 1009.1
20170423051333 45 280 2.0 6.0 0.00 0.04 0.00 80 1009.0
20170423051133 45 276 1.0 6.0 0.00 0.05 0.00 79 1009.2
20170423051032 45 273 2.0 6.0 0.00 0.05 0.00 79 1009.2
20170423050733 45 275 1.0 6.0 0.00 0.05 0.00 78 1009.2
20170423050532 45 275 1.0 5.0 0.00 0.05 0.00 78 1009.1
20170423050432 45 275 2.0 5.0 0.00 0.05 0.00 79 1009.1
20170423050332 45 273 1.0 5.0 0.00 0.05 0.00 79 1009.2
20170423050133 45 271 2.0 5.0 0.00 0.05 0.00 79 1009.2
20170423050033 45 271 2.0 7.0 0.00 0.05 0.00 79 1009.1
20170423045933 45 271 3.0 7.0 0.00 0.05 0.00 79 1009.1
20170423045833 45 278 4.0 7.0 0.00 0.05 0.00 79 1009.0
20170423045732 45 277 3.0 7.0 0.00 0.05 0.00 80 1009.2
20170423045433 45 277 2.0 7.0 0.00 0.06 0.00 80 1009.1
20170423045333 45 279 1.0 7.0 0.00 0.06 0.00 79 1009.1
20170423045233 45 280 1.0 7.0 0.00 0.06 0.00 79 1009.1
20170423045132 45 281 2.0 7.0 0.00 0.06 0.00 79 1009.0
20170423045032 45 282 3.0 7.0 0.00 0.06 0.00 79 1009.0
20170423044833 45 287 3.0 6.0 0.00 0.06 0.00 79 1009.1
20170423044733 45 283 1.0 6.0 0.00 0.06 0.00 79 1008.8
20170423044632 45 282 2.0 6.0 0.00 0.07 0.00 79 1009.0
20170423044332 45 280 1.0 6.0 0.00 0.07 0.00 78 1009.1
20170423044133 45 279 2.0 7.0 0.00 0.07 0.00 78 1008.8
20170423044033 45 277 3.0 7.0 0.00 0.07 0.00 78 1009.1
20170423043832 45 266 3.0 7.0 0.00 0.07 0.00 78 1008.8
20170423043433 45 264 2.0 7.0 0.00 0.08 0.00 78 1008.8
20170423043232 45 264 3.0 7.0 0.00 0.08 0.00 78 1008.9
20170423043132 45 264 3.0 7.0 0.00 0.08 0.00 78 1009.0
20170423042933 46 268 3.0 7.0 0.00 0.08 0.00 78 1009.0
20170423042332 46 273 1.0 7.0 0.00 0.09 0.00 77 1009.0
20170423041932 46 274 1.0 6.0 0.00 0.09 0.00 78 1009.1
20170423041832 46 277 3.0 6.0 0.00 0.11 0.00 78 1008.9
20170423041533 46 277 2.0 6.0 0.00 0.11 0.00 77 1009.0
20170423041332 46 277 3.0 6.0 0.00 0.11 0.00 77 1009.0
20170423041232 46 277 2.0 6.0 0.00 0.11 0.00 77 1008.9
20170423041033 46 274 2.0 6.0 0.00 0.12 0.00 77 1008.9
20170423040833 46 274 1.0 5.0 0.00 0.12 0.00 77 1009.0
20170423040732 46 271 3.0 5.0 0.00 0.12 0.00 77 1009.0
20170423040632 46 271 2.0 5.0 0.00 0.12 0.00 77 1009.0
20170423040533 46 274 2.0 5.0 0.00 0.12 0.00 77 1009.2
20170423040332 46 277 2.0 5.0 0.00 0.12 0.00 77 1009.0
20170423040232 46 277 2.0 5.0 0.00 0.12 0.00 77 1009.0
20170423035832 46 280 2.0 5.0 0.00 0.12 0.12 77 1008.9
20170423035632 46 282 2.0 5.0 0.00 0.12 0.12 77 1008.9
20170423035533 46 279 1.0 5.0 0.00 0.12 0.12 77 1009.0
20170423035433 46 281 2.0 5.0 0.00 0.12 0.12 77 1009.0
20170423035132 46 285 3.0 5.0 0.00 0.12 0.12 76 1009.0
20170423035032 46 290 2.0 5.0 0.00 0.12 0.12 76 1009.0
20170423034833 46 288 2.0 5.0 0.00 0.12 0.12 76 1008.8
20170423034733 46 285 1.0 5.0 0.00 0.12 0.12 76 1009.1
20170423034432 46 281 2.0 7.0 0.00 0.12 0.12 76 1009.2
20170423034332 46 276 2.0 7.0 0.00 0.12 0.12 76 1008.9
20170423034133 47 276 3.0 7.0 0.00 0.12 0.12 75 1009.0
20170423033932 47 272 3.0 7.0 0.00 0.12 0.12 75 1009.1
20170423033732 47 278 5.0 7.0 0.00 0.12 0.12 76 1008.9
20170423033533 47 278 3.0 7.0 0.00 0.12 0.12 76 1009.0
20170423033433 47 279 2.0 7.0 0.00 0.12 0.12 75 1008.9
20170423033232 47 278 3.0 7.0 0.00 0.12 0.12 76 1008.9
20170423033132 47 276 2.0 7.0 0.00 0.12 0.12 76 1009.2
20170423032932 47 286 3.0 7.0 0.00 0.12 0.12 76 1009.0
20170423032732 47 280 3.0 6.0 0.00 0.12 0.12 76 1008.9
20170423032532 46 270 1.0 7.0 0.00 0.12 0.12 76 1008.9
20170423032333 47 267 1.0 7.0 0.00 0.12 0.12 75 1009.1
20170423032233 47 267 1.0 7.0 0.00 0.12 0.12 75 1009.0
20170423032032 47 284 3.0 9.0 0.00 0.12 0.12 76 1009.0
20170423031832 47 293 2.0 9.0 0.00 0.12 0.12 75 1008.9
20170423031732 47 292 3.0 9.0 0.00 0.12 0.12 75 1008.7
20170423031633 47 297 1.0 9.0 0.00 0.12 0.12 75 1009.0
20170423031533 47 301 2.0 9.0 0.00 0.12 0.12 75 1009.0
20170423031332 47 306 1.0 9.0 0.00 0.12 0.12 75 1008.9
20170423031232 47 308 3.0 9.0 0.00 0.12 0.12 75 1009.0
20170423031033 47 283 3.0 6.0 0.00 0.12 0.12 75 1008.8
20170423030832 47 271 2.0 5.0 0.00 0.12 0.12 75 1009.0
20170423030732 47 283 3.0 7.0 0.00 0.12 0.12 75 1008.8
20170423030533 47 271 1.0 7.0 0.00 0.12 0.12 75 1009.1
20170423030433 47 272 2.0 7.0 0.00 0.12 0.12 75 1008.9
20170423030332 47 275 2.0 7.0 0.00 0.12 0.12 75 1009.2
20170423030132 47 279 2.0 7.0 0.00 0.12 0.12 75 1009.2
20170423025933 48 280 2.0 7.0 0.00 0.12 0.12 75 1008.9
20170423025833 47 282 3.0 7.0 0.00 0.12 0.12 75 1008.9
20170423025732 47 270 3.0 7.0 0.00 0.12 0.12 75 1009.1
20170423025532 47 261 3.0 7.0 0.00 0.12 0.12 75 1009.2
20170423025432 47 260 2.0 7.0 0.00 0.12 0.12 75 1008.9
20170423025333 47 256 2.0 7.0 0.00 0.12 0.12 75 1009.0
20170423025032 48 262 3.0 7.0 0.00 0.12 0.12 74 1009.1
20170423024932 48 263 1.0 7.0 0.00 0.12 0.12 74 1008.9
20170423024833 48 267 3.0 7.0 0.00 0.12 0.12 74 1008.9
20170423024632 47 279 3.0 6.0 0.00 0.12 0.12 74 1009.1
20170423024432 48 281 2.0 5.0 0.00 0.12 0.12 74 1008.9
20170423024233 48 278 2.0 5.0 0.00 0.12 0.12 74 1008.7
20170423024133 47 279 3.0 5.0 0.00 0.12 0.12 75 1008.9
20170423024032 48 279 2.0 5.0 0.00 0.12 0.12 74 1008.9
20170423023932 48 278 2.0 5.0 0.00 0.12 0.12 74 1008.9
20170423023832 47 273 3.0 5.0 0.00 0.12 0.12 74 1008.9
20170423023432 48 272 3.0 9.0 0.00 0.12 0.12 73 1009.1
20170423023332 48 274 3.0 9.0 0.00 0.12 0.12 73 1008.9
20170423023232 48 274 1.0 9.0 0.00 0.12 0.12 72 1009.0
20170423023132 48 270 3.0 9.0 0.00 0.12 0.12 72 1009.2
20170423023033 48 273 2.0 9.0 0.00 0.12 0.12 72 1009.0
20170423022932 48 273 3.0 9.0 0.00 0.13 0.12 71 1009.0
20170423022832 48 275 3.0 9.0 0.00 0.13 0.12 72 1009.1
20170423022532 49 288 2.0 9.0 0.00 0.13 0.12 70 1009.0
20170423022332 48 287 1.0 6.0 0.00 0.13 0.12 71 1009.0
20170423022233 48 289 1.0 6.0 0.00 0.13 0.12 69 1008.9
20170423022132 48 289 2.0 6.0 0.00 0.13 0.12 69 1009.0
20170423021832 49 283 3.0 6.0 0.00 0.13 0.12 69 1009.1
20170423021733 48 281 3.0 6.0 0.00 0.13 0.12 69 1009.0
20170423021633 49 276 1.0 6.0 0.00 0.13 0.12 69 1009.0
20170423021532 49 276 2.0 6.0 0.00 0.13 0.12 69 1009.1
20170423021132 49 272 3.0 6.0 0.00 0.13 0.12 69 1009.0
20170423020932 49 272 2.0 4.0 0.00 0.13 0.12 69 1008.9
20170423020832 49 272 1.0 4.0 0.00 0.13 0.12 69 1008.8
20170423020633 49 270 3.0 5.0 0.00 0.13 0.12 68 1009.0
20170423020532 49 273 3.0 6.0 0.00 0.13 0.12 68 1008.9
20170423020332 49 274 3.0 9.0 0.00 0.13 0.12 68 1008.7
20170423020232 49 270 3.0 9.0 0.00 0.13 0.12 68 1008.9
20170423020033 49 273 3.0 9.0 0.00 0.13 0.12 68 1008.7
20170423015832 49 274 3.0 9.0 0.00 0.13 0.12 67 1008.6
20170423015732 49 274 3.0 9.0 0.00 0.14 0.12 67 1008.7
20170423015632 49 276 4.0 9.0 0.00 0.14 0.12 67 1008.5
20170423015532 49 283 3.0 9.0 0.00 0.14 0.12 67 1008.8
20170423015333 49 277 3.0 8.0 0.00 0.14 0.12 67 1008.7
20170423015232 50 289 4.0 8.0 0.00 0.14 0.12 67 1008.6
20170423015132 49 291 5.0 8.0 0.00 0.14 0.12 68 1008.8
20170423015032 49 287 3.0 8.0 0.00 0.14 0.12 68 1008.7
20170423014932 49 290 2.0 8.0 0.00 0.14 0.12 67 1008.9
20170423014732 49 299 4.0 8.0 0.00 0.14 0.12 67 1008.6
20170423014632 49 296 3.0 8.0 0.00 0.15 0.12 68 1008.7
20170423014432 49 288 3.0 7.0 0.00 0.15 0.12 67 1008.7
20170423014332 50 287 2.0 7.0 0.00 0.15 0.12 67 1008.5
20170423014232 49 277 3.0 7.0 0.00 0.15 0.12 68 1008.6
20170423014133 50 280 2.0 7.0 0.00 0.15 0.12 67 1008.5
20170423013932 50 280 3.0 7.0 0.00 0.15 0.12 67 1008.5
20170423013732 49 284 4.0 7.0 0.00 0.17 0.12 68 1008.5
20170423013632 50 286 2.0 7.0 0.00 0.17 0.12 67 1008.5
20170423013432 50 292 3.0 7.0 0.00 0.17 0.12 67 1008.3
20170423013332 50 295 3.0 6.0 0.00 0.17 0.12 67 1008.4
20170423012933 50 289 1.0 6.0 0.00 0.17 0.12 66 1008.5
20170423012832 50 281 3.0 7.0 0.00 0.17 0.12 67 1008.6
20170423012732 50 275 1.0 7.0 0.00 0.17 0.12 67 1008.5
20170423012632 50 272 3.0 7.0 0.00 0.17 0.12 67 1008.5
20170423012532 50 269 1.0 7.0 0.00 0.17 0.12 66 1008.5
20170423012433 50 269 1.0 7.0 0.00 0.17 0.12 65 1008.5
20170423012332 50 269 3.0 7.0 0.00 0.17 0.12 65 1008.5
20170423012232 50 270 3.0 7.0 0.00 0.17 0.12 65 1008.5
20170423011932 51 278 1.0 7.0 0.00 0.17 0.12 66 1008.3
20170423011833 50 282 5.0 7.0 0.00 0.17 0.12 66 1008.4
20170423011732 50 286 2.0 7.0 0.00 0.17 0.12 66 1008.3
20170423011432 50 285 1.0 7.0 0.00 0.17 0.12 66 1008.5
20170423011233 50 282 2.0 6.0 0.00 0.17 0.12 67 1008.3
20170423011132 50 277 1.0 6.0 0.00 0.17 0.12 66 1008.2
20170423011032 50 272 2.0 7.0 0.00 0.17 0.12 66 1008.3
20170423010832 50 262 3.0 7.0 0.00 0.17 0.12 66 1008.1
20170423010733 50 264 2.0 7.0 0.00 0.17 0.12 66 1008.3
20170423010532 50 264 3.0 7.0 0.00 0.17 0.12 65 1008.1
20170423010432 50 267 3.0 7.0 0.00 0.17 0.12 65 1008.2
20170423010132 51 274 3.0 7.0 0.00 0.17 0.12 65 1008.1
20170423005832 51 288 3.0 7.0 0.00 0.17 0.12 64 1008.0
20170423005733 51 288 1.0 7.0 0.00 0.17 0.12 64 1008.1
20170423005432 51 291 3.0 7.0 0.00 0.17 0.12 65 1008.2
20170423005233 51 277 5.0 8.0 0.00 0.17 0.12 65 1008.1
20170423005132 51 268 1.0 8.0 0.00 0.17 0.12 65 1008.0
20170423004932 51 272 1.0 8.0 0.00 0.17 0.12 65 1007.9
20170423004832 51 270 3.0 8.0 0.00 0.17 0.12 65 1007.9
20170423004733 51 265 1.0 8.0 0.00 0.17 0.12 64 1008.1
20170423004332 51 271 3.0 8.0 0.00 0.17 0.12 64 1007.8
20170423004232 51 274 5.0 8.0 0.00 0.17 0.12 64 1007.9
20170423004133 51 285 3.0 7.0 0.00 0.17 0.12 64 1007.8
20170423004032 51 286 2.0 7.0 0.00 0.17 0.12 64 1007.7
20170423003932 51 284 1.0 7.0 0.00 0.17 0.12 64 1007.7
20170423003732 51 282 1.0 7.0 0.00 0.17 0.12 64 1007.8
20170423003633 51 280 1.0 7.0 0.00 0.17 0.12 64 1007.7
20170423003532 52 280 3.0 7.0 0.00 0.17 0.12 63 1007.7
20170423003332 51 284 2.0 7.0 0.00 0.17 0.12 64 1007.7
20170423002932 51 284 2.0 7.0 0.00 0.17 0.12 64 1007.8
20170423002833 51 289 3.0 7.0 0.00 0.17 0.12 64 1007.7
20170423002333 52 280 3.0 6.0 0.00 0.17 0.12 65 1007.7
20170423002032 51 278 1.0 6.0 0.00 0.17 0.12 64 1007.5
20170423001832 52 274 2.0 9.0 0.00 0.17 0.12 63 1007.6
20170423001733 52 278 3.0 9.0 0.00 0.17 0.12 63 1007.8
20170423001532 52 286 3.0 9.0 0.00 0.17 0.12 63 1007.4
20170423001232 52 307 2.0 9.0 0.00 0.17 0.12 65 1007.5
20170423001133 52 308 1.0 9.0 0.00 0.17 0.12 64 1007.5
20170423001032 52 310 6.0 9.0 0.00 0.17 0.12 65 1007.4
20170423000832 52 313 1.0 5.0 0.00 0.17 0.12 65 1007.6
20170423000632 52 291 1.0 5.0 0.00 0.17 0.12 65 1007.7
20170423000433 52 282 1.0 5.0 0.00 0.17 0.12 65 1007.2
20170423000232 52 278 1.0 5.0 0.00 0.17 0.12 65 1007.7
20170423000132 52 275 1.0 5.0 0.00 0.17 0.12 65 1007.5
20170422235832 52 279 3.0 6.0 0.00 0.17 0.12 64 1007.7
20170422235732 53 283 2.0 6.0 0.00 0.17 0.12 63 1007.7
20170422235532 53 292 1.0 6.0 0.00 0.17 0.12 64 1007.8
20170422235132 53 299 1.0 6.0 0.00 0.17 0.12 63 1007.8
20170422235032 53 293 1.0 6.0 0.00 0.17 0.12 63 1007.6
20170422234932 53 294 3.0 6.0 0.00 0.17 0.12 64 1007.6
20170422234832 53 288 3.0 6.0 0.00 0.17 0.12 64 1007.8
20170422234732 53 284 1.0 4.0 0.00 0.17 0.12 64 1007.7
20170422234532 53 284 2.0 5.0 0.00 0.17 0.12 65 1007.7
20170422234432 53 288 1.0 5.0 0.00 0.17 0.12 65 1007.7
20170422234232 53 283 1.0 5.0 0.00 0.17 0.12 64 1007.9
20170422234033 53 283 1.0 5.0 0.00 0.17 0.12 65 1008.0
20170422233932 53 281 0.0 5.0 0.00 0.17 0.12 64 1007.7
20170422233832 53 286 1.0 5.0 0.00 0.17 0.12 65 1007.6
20170422233636 53 282 1.0 5.0 0.00 0.17 0.12 63 1007.6
20170422233532 53 282 3.0 5.0 0.00 0.17 0.12 63 1007.7
20170422233332 53 283 2.0 5.0 0.00 0.17 0.12 62 1007.6
20170422233232 53 282 2.0 5.0 0.00 0.17 0.12 63 1007.6
20170422233132 53 277 1.0 5.0 0.00 0.17 0.12 62 1007.4
20170422232832 54 272 1.0 5.0 0.00 0.17 0.12 61 1007.5
20170422232632 54 271 3.0 5.0 0.00 0.17 0.12 62 1007.6
20170422232532 53 276 2.0 7.0 0.00 0.17 0.12 64 1007.7
20170422232432 53 288 3.0 7.0 0.00 0.17 0.12 65 1007.6
20170422232132 53 283 0.0 7.0 0.00 0.17 0.12 65 1007.5
20170422231132 52 299 2.0 7.0 0.00 0.17 0.12 65 1006.8
20170422231032 53 293 3.0 8.0 0.00 0.17 0.12 64 1006.8
20170422230933 53 294 3.0 8.0 0.00 0.17 0.12 65 1006.8
20170422230632 52 288 2.0 8.0 0.00 0.17 0.12 65 1006.9
20170422230532 53 280 3.0 8.0 0.00 0.17 0.12 65 1006.9
20170422230332 52 273 4.0 8.0 0.00 0.17 0.12 66 1006.7
20170422230132 52 275 3.0 8.0 0.00 0.17 0.12 65 1006.7
20170422230032 52 280 5.0 9.0 0.00 0.17 0.12 65 1006.9
20170422225832 52 285 3.0 9.0 0.00 0.17 0.12 66 1006.7
20170422225633 52 302 3.0 9.0 0.00 0.17 0.12 66 1006.8
20170422225432 53 317 3.0 9.0 0.00 0.17 0.12 65 1007.0
20170422225232 53 311 2.0 9.0 0.00 0.17 0.12 65 1007.1
20170422225133 53 314 4.0 9.0 0.00 0.17 0.12 64 1006.9
20170422225032 53 316 4.0 9.0 0.00 0.17 0.12 64 1007.1
20170422224932 53 325 3.0 8.0 0.00 0.17 0.12 63 1007.4
20170422224732 53 331 3.0 8.0 0.00 0.17 0.12 65 1007.3
20170422224532 54 306 3.0 8.0 0.00 0.17 0.12 64 1007.3
20170422224432 54 300 3.0 8.0 0.00 0.17 0.12 65 1007.3
20170422224032 54 318 5.0 8.0 0.00 0.17 0.12 63 1007.4
20170422223732 54 293 2.0 9.0 0.00 0.17 0.12 64 1007.2
20170422223632 54 298 4.0 9.0 0.00 0.17 0.12 64 1007.1
20170422223533 54 308 2.0 9.0 0.00 0.17 0.12 65 1007.1
20170422223432 54 311 3.0 9.0 0.00 0.17 0.12 64 1007.1
20170422223332 53 307 4.0 9.0 0.00 0.17 0.12 66 1007.2
20170422223232 53 305 3.0 9.0 0.00 0.17 0.12 66 1007.1
20170422223032 53 295 3.0 9.0 0.00 0.17 0.12 65 1007.2
20170422222933 53 289 3.0 9.0 0.00 0.17 0.12 66 1007.3
20170422222832 53 295 3.0 9.0 0.00 0.17 0.12 65 1007.3
20170422222732 53 297 4.0 9.0 0.00 0.17 0.12 65 1007.4
20170422222632 52 296 3.0 9.0 0.00 0.17 0.12 65 1007.5
20170422222532 52 285 3.0 9.0 0.00 0.17 0.12 64 1007.5
20170422222432 52 291 6.0 9.0 0.00 0.17 0.12 65 1007.6
20170422222333 53 277 3.0 8.0 0.00 0.17 0.12 65 1007.5
20170422222032 53 267 5.0 8.0 0.00 0.17 0.12 65 1007.6
20170422221633 53 262 3.0 7.0 0.00 0.17 0.12 65 1007.5
20170422221532 53 280 3.0 7.0 0.00 0.17 0.12 65 1007.6
20170422221432 52 286 5.0 7.0 0.00 0.17 0.12 65 1007.6
20170422221232 53 330 3.0 7.0 0.00 0.17 0.12 66 1007.8
20170422221032 52 348 3.0 7.0 0.00 0.17 0.12 67 1007.8
20170422220932 53 346 2.0 9.0 0.00 0.17 0.12 66 1007.9
20170422220732 52 337 2.0 11.0 0.00 0.17 0.12 65 1007.7
20170422220632 53 328 5.0 11.0 0.00 0.17 0.12 65 1007.5
20170422220532 53 313 5.0 11.0 0.00 0.17 0.12 65 1007.7
20170422220433 53 296 5.0 11.0 0.00 0.17 0.12 65 1007.6
20170422220232 53 261 5.0 11.0 0.00 0.17 0.12 65 1007.8
20170422220032 53 257 5.0 11.0 0.00 0.17 0.12 65 1007.8
20170422215732 53 282 4.0 10.0 0.00 0.17 0.12 65 1007.8
20170422215532 52 293 4.0 10.0 0.00 0.17 0.12 65 1007.8
20170422215432 52 300 3.0 10.0 0.00 0.17 0.12 65 1007.9
20170422215335 53 308 3.0 10.0 0.00 0.17 0.12 65 1008.1
20170422215132 53 308 3.0 10.0 0.00 0.17 0.12 64 1008.2
20170422215032 53 304 5.0 10.0 0.00 0.17 0.12 64 1008.0
20170422214832 53 287 6.0 9.0 0.00 0.17 0.12 63 1008.2
20170422214532 53 287 3.0 4.0 0.00 0.17 0.12 64 1008.3
20170422214432 53 283 2.0 4.0 0.00 0.17 0.12 65 1008.3
20170422214132 53 273 1.0 4.0 0.00 0.17 0.12 67 1008.5
20170422213932 54 275 0.0 3.0 0.00 0.17 0.12 65 1008.5
20170422213832 53 281 0.0 7.0 0.00 0.17 0.12 67 1008.3
20170422213733 53 293 1.0 7.0 0.00 0.17 0.12 68 1008.3
20170422213632 53 296 1.0 7.0 0.00 0.17 0.12 69 1008.3
20170422213532 53 292 2.0 7.0 0.00 0.17 0.12 69 1008.4
20170422213432 54 290 1.0 7.0 0.00 0.17 0.12 67 1008.2
20170422213232 53 280 3.0 7.0 0.00 0.17 0.12 71 1008.2
20170422212831 52 299 4.0 9.0 0.00 0.17 0.12 68 1008.3
20170422212732 53 295 3.0 9.0 0.00 0.17 0.12 69 1008.2
20170422212632 53 291 1.0 9.0 0.00 0.17 0.12 68 1008.0
20170422212432 53 301 3.0 9.0 0.00 0.17 0.12 67 1008.3
20170422212132 52 306 1.0 9.0 0.00 0.17 0.12 67 1008.3
20170422211335 52 275 2.0 5.0 0.00 0.17 0.12 66 1008.2
20170422211232 53 270 3.0 5.0 0.00 0.17 0.12 66 1008.2
20170422210932 52 276 1.0 6.0 0.00 0.17 0.12 68 1008.1
20170422210831 53 272 1.0 6.0 0.00 0.17 0.12 68 1007.9
20170422210632 52 274 1.0 7.0 0.00 0.17 0.12 67 1008.2
20170422210532 52 274 3.0 7.0 0.00 0.17 0.12 67 1008.0
20170422210332 52 284 2.0 7.0 0.00 0.17 0.12 67 1007.8
20170422210232 52 288 1.0 7.0 0.00 0.17 0.12 67 1007.9
20170422210132 52 286 3.0 7.0 0.00 0.17 0.12 66 1008.0
20170422210032 52 290 2.0 7.0 0.00 0.17 0.12 66 1007.9
20170422205932 52 291 3.0 7.0 0.00 0.17 0.12 66 1008.0
20170422205832 52 290 2.0 7.0 0.00 0.17 0.12 65 1008.1
20170422205732 52 290 4.0 7.0 0.00 0.17 0.12 66 1008.0
20170422205632 52 286 4.0 7.0 0.00 0.17 0.12 66 1008.0
20170422205432 52 291 4.0 8.0 0.00 0.17 0.12 67 1008.0
20170422205332 52 292 2.0 8.0 0.00 0.17 0.12 67 1008.2
20170422205232 52 298 3.0 8.0 0.00 0.17 0.12 67 1008.0
20170422205132 52 296 3.0 8.0 0.00 0.17 0.12 68 1008.0
20170422204932 52 296 4.0 8.0 0.00 0.17 0.12 69 1007.9
20170422204732 52 316 1.0 8.0 0.00 0.17 0.12 66 1008.1
20170422204232 52 314 1.0 8.0 0.00 0.17 0.12 66 1008.1
20170422204032 52 313 5.0 8.0 0.00 0.17 0.12 66 1008.0
20170422203932 52 306 3.0 8.0 0.00 0.17 0.12 66 1008.0
20170422203632 52 295 3.0 9.0 0.00 0.17 0.12 68 1007.8
20170422203432 52 290 3.0 9.0 0.00 0.17 0.12 67 1007.9
20170422202732 51 303 3.0 8.0 0.00 0.17 0.12 69 1007.9
20170422202032 52 304 3.0 9.0 0.00 0.17 0.12 66 1008.2
20170422201932 52 297 2.0 9.0 0.00 0.17 0.12 67 1008.4
20170422201632 52 297 3.0 9.0 0.00 0.17 0.12 66 1008.4
20170422201431 51 281 4.0 9.0 0.00 0.17 0.12 68 1008.3
20170422201132 51 267 3.0 7.0 0.00 0.17 0.12 67 1008.3
20170422201032 52 269 5.0 7.0 0.00 0.17 0.12 67 1008.4
20170422200932 52 272 3.0 6.0 0.00 0.17 0.12 67 1008.4
20170422200832 52 284 2.0 8.0 0.00 0.17 0.12 67 1008.4
20170422200532 51 290 1.0 9.0 0.00 0.17 0.12 68 1008.7
20170422200032 51 284 1.0 9.0 0.00 0.17 0.12 68 1008.9
20170422195932 51 286 3.0 9.0 0.00 0.17 0.12 66 1008.8
20170422195732 51 275 5.0 7.0 0.00 0.17 0.12 67 1008.7
20170422195631 52 276 5.0 7.0 0.00 0.17 0.12 67 1008.9
20170422195432 51 285 5.0 7.0 0.00 0.17 0.12 68 1008.9
20170422195332 52 284 3.0 6.0 0.00 0.17 0.12 67 1008.8
20170422195132 52 292 2.0 10.0 0.00 0.17 0.12 68 1008.9
20170422195031 52 306 4.0 10.0 0.00 0.17 0.12 69 1008.9
20170422194932 52 317 3.0 11.0 0.00 0.17 0.12 68 1008.8
20170422194732 52 318 1.0 11.0 0.00 0.17 0.12 69 1008.8
20170422194632 52 323 3.0 11.0 0.00 0.17 0.12 67 1008.8
20170422194532 51 323 3.0 11.0 0.00 0.17 0.12 66 1008.7
20170422194132 51 322 3.0 11.0 0.00 0.17 0.12 68 1008.9
20170422194032 51 318 7.0 11.0 0.00 0.17 0.12 70 1008.9
20170422193932 52 310 6.0 11.0 0.00 0.17 0.12 70 1008.8
20170422193832 52 301 5.0 10.0 0.00 0.17 0.12 70 1008.9
20170422193732 52 300 2.0 10.0 0.00 0.17 0.12 67 1008.5
20170422193532 51 293 3.0 10.0 0.00 0.17 0.12 68 1008.6
20170422193432 51 288 5.0 10.0 0.00 0.17 0.12 69 1008.8
20170422193232 51 290 6.0 11.0 0.00 0.17 0.12 68 1008.6
20170422193132 52 284 4.0 11.0 0.00 0.17 0.12 67 1008.9
20170422193032 51 280 3.0 11.0 0.00 0.17 0.12 69 1008.7
20170422192832 51 280 3.0 11.0 0.00 0.17 0.12 69 1008.7
20170422192632 51 283 5.0 11.0 0.00 0.17 0.12 70 1008.6
20170422192532 51 279 5.0 11.0 0.00 0.17 0.12 69 1008.5
20170422192432 51 282 6.0 11.0 0.00 0.17 0.12 68 1008.4
20170422192332 51 277 8.0 11.0 0.00 0.17 0.12 69 1008.4
20170422191832 52 261 1.0 9.0 0.00 0.17 0.12 67 1008.7
20170422191732 52 263 3.0 9.0 0.00 0.17 0.12 67 1008.6
20170422191532 51 262 3.0 10.0 0.00 0.17 0.12 67 1008.8
20170422191331 52 257 2.0 13.0 0.00 0.17 0.12 68 1008.6
20170422191232 52 258 4.0 13.0 0.00 0.17 0.12 67 1008.6
20170422191132 52 261 4.0 13.0 0.00 0.17 0.12 68 1008.6
20170422191032 52 261 3.0 13.0 0.00 0.17 0.12 67 1008.5
20170422190932 51 256 8.0 13.0 0.00 0.17 0.12 68 1008.5
20170422190432 51 253 3.0 14.0 0.00 0.17 0.12 68 1008.9
20170422190332 52 255 7.0 14.0 0.00 0.17 0.12 68 1008.9
20170422190232 51 256 7.0 14.0 0.00 0.17 0.12 69 1008.7
20170422190031 52 259 5.0 14.0 0.00 0.17 0.12 68 1008.8
20170422185932 51 271 5.0 14.0 0.00 0.17 0.12 68 1008.8
20170422185832 51 274 5.0 14.0 0.00 0.17 0.12 68 1008.9
20170422185632 52 285 1.0 9.0 0.00 0.17 0.12 68 1008.8
20170422185532 52 286 3.0 9.0 0.00 0.17 0.12 67 1008.9
20170422185132 51 283 6.0 9.0 0.00 0.17 0.12 67 1008.7
20170422185032 51 279 5.0 11.0 0.00 0.17 0.12 68 1008.8
20170422184832 52 280 3.0 11.0 0.00 0.17 0.12 68 1008.7
20170422184632 52 274 4.0 11.0 0.00 0.17 0.12 69 1008.9
20170422184532 52 277 2.0 11.0 0.00 0.17 0.12 68 1008.7
20170422184332 52 289 3.0 11.0 0.00 0.17 0.12 68 1008.9
20170422184231 52 294 3.0 11.0 0.00 0.17 0.12 67 1008.8
20170422184132 52 293 7.0 11.0 0.00 0.17 0.12 69 1008.8
20170422184032 52 293 6.0 11.0 0.00 0.17 0.12 70 1008.8
20170422183631 52 286 4.0 9.0 0.00 0.17 0.12 66 1008.9
20170422183432 52 297 5.0 11.0 0.00 0.17 0.12 68 1008.8
20170422183332 53 286 4.0 11.0 0.00 0.17 0.12 69 1009.0
20170422183232 53 285 3.0 11.0 0.00 0.17 0.12 69 1009.1
20170422183132 53 281 2.0 11.0 0.00 0.17 0.12 69 1009.0
20170422182932 52 281 5.0 11.0 0.00 0.17 0.12 66 1009.2
20170422182832 52 281 5.0 11.0 0.00 0.17 0.12 66 1009.0
20170422182732 52 281 5.0 11.0 0.00 0.17 0.12 66 1008.7
20170422182331 52 282 3.0 11.0 0.00 0.17 0.12 66 1008.8
20170422182232 52 276 3.0 11.0 0.00 0.17 0.12 66 1008.6
20170422182132 52 276 5.0 11.0 0.00 0.17 0.12 64 1008.8
20170422182032 52 278 4.0 11.0 0.00 0.17 0.12 64 1008.9
20170422181932 52 274 5.0 11.0 0.00 0.17 0.12 65 1008.9
20170422181732 52 279 3.0 11.0 0.00 0.17 0.12 65 1009.0
20170422181632 52 280 4.0 11.0 0.00 0.17 0.12 65 1009.0
20170422181432 53 272 9.0 11.0 0.00 0.17 0.12 65 1009.0
20170422181032 53 272 3.0 9.0 0.00 0.17 0.12 64 1009.4
20170422180932 52 276 5.0 9.0 0.00 0.17 0.12 66 1009.2
20170422180631 51 279 5.0 9.0 0.00 0.17 0.12 67 1009.4
20170422180532 51 281 5.0 9.0 0.00 0.17 0.12 67 1009.4
20170422180432 51 281 5.0 9.0 0.00 0.17 0.12 67 1009.7
20170422180332 51 281 5.0 9.0 0.00 0.17 0.12 67 1009.5
20170422180132 51 285 5.0 9.0 0.00 0.17 0.12 67 1009.4
20170422175932 52 289 6.0 10.0 0.00 0.17 0.12 67 1009.5
20170422175732 52 295 6.0 11.0 0.00 0.17 0.12 69 1009.5
20170422175632 52 290 4.0 11.0 0.00 0.17 0.12 68 1009.5
20170422175132 51 286 4.0 11.0 0.00 0.17 0.12 69 1009.3
20170422175032 51 286 5.0 11.0 0.00 0.17 0.12 67 1009.2
20170422174631 52 269 3.0 9.0 0.00 0.17 0.12 72 1009.6
20170422174532 51 265 3.0 9.0 0.00 0.17 0.12 70 1009.5
20170422174432 52 270 4.0 9.0 0.00 0.17 0.12 71 1009.4
20170422174332 51 275 2.0 9.0 0.00 0.17 0.12 72 1009.2
20170422174232 51 279 2.0 9.0 0.00 0.17 0.12 70 1009.4
20170422173932 52 293 2.0 9.0 0.00 0.17 0.12 71 1009.7
20170422173832 51 291 2.0 9.0 0.00 0.17 0.12 68 1009.4
20170422173332 51 293 7.0 9.0 0.00 0.17 0.12 68 1009.4
20170422173232 52 295 5.0 9.0 0.00 0.17 0.12 69 1009.5
20170422173131 51 303 3.0 9.0 0.00 0.17 0.12 69 1009.7
20170422172932 51 292 3.0 9.0 0.00 0.17 0.12 67 1009.6
20170422172532 51 305 2.0 12.0 0.00 0.17 0.12 68 1009.5
20170422172432 51 312 4.0 12.0 0.00 0.17 0.12 68 1009.4
20170422172032 51 308 5.0 12.0 0.00 0.17 0.12 69 1009.5
20170422171932 51 306 5.0 12.0 0.00 0.17 0.12 69 1009.4
20170422171732 50 305 5.0 12.0 0.00 0.17 0.12 67 1009.5
20170422171532 50 290 5.0 11.0 0.00 0.17 0.12 68 1009.5
20170422171332 51 273 4.0 13.0 0.00 0.17 0.12 70 1009.6
20170422171032 50 278 4.0 13.0 0.00 0.17 0.12 70 1009.3
20170422170932 51 284 6.0 13.0 0.00 0.17 0.12 71 1009.3
20170422170832 51 282 4.0 13.0 0.00 0.17 0.12 72 1009.3
20170422170532 51 286 6.0 13.0 0.00 0.17 0.12 72 1009.4
20170422170432 51 289 6.0 13.0 0.00 0.17 0.12 72 1009.4
20170422170232 50 287 3.0 13.0 0.00 0.17 0.12 70 1009.3
20170422170031 50 280 8.0 13.0 0.00 0.17 0.12 73 1009.3
20170422165932 51 273 7.0 11.0 0.00 0.17 0.12 74 1009.2
20170422165832 51 275 3.0 11.0 0.00 0.17 0.12 73 1009.4
20170422165732 51 272 3.0 11.0 0.00 0.17 0.12 73 1009.3
20170422165332 50 270 5.0 15.0 0.00 0.17 0.12 73 1009.4
20170422165232 51 278 5.0 15.0 0.00 0.17 0.12 74 1009.3
20170422165132 51 286 4.0 15.0 0.00 0.17 0.12 74 1009.4
20170422164732 50 284 5.0 15.0 0.00 0.17 0.12 70 1009.2
20170422164632 50 295 9.0 15.0 0.00 0.17 0.12 72 1009.2
20170422164532 50 289 4.0 12.0 0.00 0.17 0.12 71 1009.2
20170422164432 50 288 4.0 12.0 0.00 0.17 0.12 72 1009.2
20170422164332 51 293 6.0 12.0 0.00 0.17 0.12 73 1009.2
20170422164132 50 289 3.0 12.0 0.00 0.17 0.12 70 1009.4
20170422164032 50 289 4.0 12.0 0.00 0.17 0.12 72 1009.2
20170422163932 50 283 7.0 12.0 0.00 0.17 0.12 71 1009.0
20170422163832 50 283 5.0 12.0 0.00 0.17 0.12 72 1009.2
20170422163631 50 288 6.0 12.0 0.00 0.17 0.12 73 1009.5
20170422163132 50 283 3.0 13.0 0.00 0.17 0.12 74 1009.3
20170422162931 49 286 6.0 14.0 0.00 0.17 0.12 74 1009.2
20170422162832 49 277 5.0 14.0 0.00 0.17 0.12 73 1009.3
20170422162732 49 270 3.0 14.0 0.00 0.17 0.12 71 1009.4
20170422162632 49 271 7.0 15.0 0.00 0.17 0.12 71 1009.3
20170422162332 49 271 5.0 15.0 0.00 0.17 0.12 74 1009.3
20170422162132 49 272 5.0 15.0 0.00 0.17 0.12 72 1009.3
20170422162032 49 270 11.0 15.0 0.00 0.17 0.12 74 1009.4
20170422161931 49 272 7.0 15.0 0.00 0.17 0.12 74 1009.3
20170422161732 49 283 7.0 15.0 0.00 0.17 0.12 74 1009.2
20170422161632 49 285 10.0 15.0 0.00 0.17 0.12 75 1009.4
20170422161532 49 286 7.0 10.0 0.00 0.17 0.12 76 1009.3
20170422161331 49 297 3.0 8.0 0.00 0.17 0.12 77 1009.2
20170422161132 50 306 1.0 8.0 0.00 0.17 0.12 76 1009.2
20170422160933 49 311 4.0 8.0 0.00 0.17 0.12 77 1009.3
20170422160832 49 303 4.0 7.0 0.00 0.17 0.12 77 1009.2
20170422160631 49 306 5.0 7.0 0.00 0.17 0.12 80 1009.0
20170422160332 49 298 5.0 7.0 0.00 0.17 0.12 80 1009.1
20170422160132 49 285 5.0 7.0 0.00 0.17 0.12 80 1008.9
20170422160032 49 277 5.0 7.0 0.00 0.17 0.12 80 1009.0
20170422155931 49 274 3.0 7.0 0.00 0.17 0.12 80 1009.2
20170422155532 48 270 3.0 8.0 0.00 0.17 0.12 80 1009.2
20170422155432 48 269 5.0 8.0 0.00 0.17 0.12 81 1009.1
20170422155331 49 268 4.0 8.0 0.00 0.17 0.12 82 1009.1
20170422155231 48 268 2.0 8.0 0.00 0.17 0.12 81 1009.3
20170422155132 49 270 3.0 8.0 0.00 0.17 0.12 80 1009.2
20170422155032 49 267 3.0 8.0 0.00 0.17 0.12 80 1009.2
20170422154932 48 266 3.0 8.0 0.00 0.17 0.12 80 1009.2
20170422154832 49 265 5.0 8.0 0.00 0.17 0.12 81 1009.2
20170422154732 48 265 1.0 7.0 0.00 0.17 0.12 80 1009.1
20170422154632 48 265 3.0 7.0 0.00 0.17 0.12 80 1009.1
20170422154532 49 267 3.0 7.0 0.00 0.17 0.12 80 1009.0
20170422154432 48 261 5.0 7.0 0.00 0.17 0.12 81 1008.9
20170422154332 49 259 3.0 7.0 0.00 0.17 0.12 81 1008.9
20170422154232 48 259 4.0 7.0 0.00 0.17 0.12 81 1008.9
20170422154131 48 257 5.0 7.0 0.00 0.17 0.12 82 1009.0
20170422154032 48 268 1.0 7.0 0.00 0.17 0.12 81 1009.0
20170422153832 48 270 4.0 7.0 0.00 0.17 0.12 81 1009.1
20170422153632 49 270 3.0 7.0 0.00 0.17 0.12 80 1009.1
20170422153531 48 268 3.0 7.0 0.00 0.17 0.12 81 1008.8
20170422153431 49 271 4.0 7.0 0.00 0.17 0.12 82 1009.0
20170422153332 48 276 3.0 7.0 0.00 0.17 0.12 82 1009.1
20170422153132 49 278 2.0 7.0 0.00 0.17 0.12 82 1009.0
20170422152932 48 278 1.0 7.0 0.00 0.17 0.12 81 1008.8
20170422152732 48 278 1.0 7.0 0.00 0.17 0.12 81 1008.9
20170422152632 48 287 2.0 7.0 0.00 0.17 0.12 80 1008.9
20170422152532 48 286 3.0 8.0 0.00 0.17 0.12 80 1008.6
20170422152332 49 279 4.0 8.0 0.00 0.17 0.12 80 1008.8
20170422152132 48 266 2.0 12.0 0.00 0.17 0.12 79 1008.7
20170422152032 48 262 3.0 12.0 0.00 0.17 0.12 80 1008.7
20170422151832 48 267 3.0 12.0 0.00 0.17 0.12 79 1008.5
20170422151631 48 263 5.0 12.0 0.00 0.17 0.12 78 1008.7
20170422151432 48 270 3.0 12.0 0.00 0.17 0.12 79 1008.8
20170422151332 48 272 6.0 12.0 0.00 0.17 0.12 78 1008.8
20170422151131 48 289 5.0 10.0 0.00 0.17 0.12 79 1008.7
20170422151031 48 292 3.0 10.0 0.00 0.17 0.12 79 1008.8
20170422150932 48 287 5.0 10.0 0.00 0.17 0.12 78 1008.9
20170422150632 48 287 3.0 13.0 0.00 0.17 0.12 78 1008.9
20170422150431 48 287 5.0 13.0 0.00 0.17 0.12 79 1008.7
20170422150232 48 279 3.0 13.0 0.00 0.17 0.12 79 1008.8
20170422150031 48 266 3.0 13.0 0.00 0.17 0.12 79 1008.9
20170422145832 48 253 4.0 13.0 0.00 0.17 0.12 78 1008.8
20170422145632 48 243 7.0 11.0 0.00 0.17 0.12 79 1008.7
20170422145532 48 221 3.0 11.0 0.00 0.17 0.12 78 1008.6
20170422145232 48 209 5.0 11.0 0.00 0.17 0.12 78 1008.4
20170422144631 48 285 4.0 11.0 0.00 0.17 0.12 79 1008.3
20170422144332 48 287 3.0 11.0 0.00 0.17 0.12 79 1008.4
20170422144131 48 292 3.0 11.0 0.00 0.17 0.12 78 1008.7
20170422144031 48 293 4.0 11.0 0.00 0.17 0.12 80 1008.6
20170422143732 48 288 5.0 11.0 0.00 0.17 0.12 80 1008.5
20170422143531 48 262 3.0 11.0 0.00 0.17 0.12 80 1008.4
20170422143432 48 269 5.0 11.0 0.00 0.17 0.12 79 1008.6
20170422143332 48 277 3.0 11.0 0.00 0.17 0.12 79 1008.7
20170422143232 48 269 3.0 11.0 0.00 0.17 0.12 80 1008.5
20170422142632 48 271 5.0 9.0 0.00 0.17 0.12 81 1008.7
20170422142532 49 282 3.0 9.0 0.00 0.17 0.12 79 1008.5
20170422142431 48 278 3.0 9.0 0.00 0.17 0.12 79 1008.6
20170422142331 48 284 3.0 9.0 0.00 0.17 0.12 80 1008.6
20170422142232 48 284 3.0 9.0 0.00 0.17 0.12 79 1008.6
20170422142132 48 288 4.0 9.0 0.00 0.17 0.12 78 1008.5
20170422142032 48 281 3.0 9.0 0.00 0.17 0.12 78 1008.7
20170422141831 48 265 3.0 12.0 0.00 0.17 0.12 79 1008.5
20170422141732 48 258 4.0 12.0 0.00 0.17 0.12 80 1008.4
20170422141632 48 258 4.0 12.0 0.00 0.17 0.12 80 1008.3
20170422141532 48 259 5.0 12.0 0.00 0.17 0.12 81 1008.3
20170422141432 48 256 5.0 12.0 0.00 0.17 0.12 80 1008.0
20170422141133 48 250 5.0 12.0 0.00 0.17 0.12 80 1008.0
20170422141032 48 254 7.0 12.0 0.00 0.17 0.12 80 1008.3
20170422140932 48 265 9.0 12.0 0.00 0.17 0.12 81 1008.3
20170422140832 48 272 5.0 10.0 0.00 0.17 0.12 82 1008.3
20170422140731 48 277 5.0 7.0 0.00 0.17 0.12 82 1008.2
20170422140632 48 280 5.0 14.0 0.00 0.17 0.12 82 1008.4
20170422140532 48 283 5.0 15.0 0.00 0.17 0.12 82 1008.4
20170422140432 48 289 5.0 15.0 0.00 0.17 0.12 82 1008.1
20170422140332 48 294 5.0 15.0 0.00 0.17 0.12 82 1007.9
20170422140131 48 301 5.0 15.0 0.00 0.17 0.12 82 1007.8
20170422140032 48 301 5.0 15.0 0.00 0.17 0.12 82 1007.7
20170422135932 48 303 5.0 15.0 0.00 0.17 0.12 82 1007.8
20170422135732 48 294 3.0 15.0 0.00 0.17 0.12 82 1007.8
20170422135631 47 295 9.0 15.0 0.00 0.17 0.12 83 1007.7
20170422135532 48 293 5.0 15.0 0.00 0.17 0.12 84 1007.6
20170422135032 48 286 4.0 9.0 0.00 0.17 0.12 85 1007.4
20170422134932 47 283 2.0 9.0 0.00 0.17 0.12 84 1007.6
20170422134531 48 300 2.0 14.0 0.00 0.17 0.12 85 1007.7
20170422134332 47 316 5.0 14.0 0.00 0.17 0.12 85 1007.6
20170422134232 48 305 2.0 14.0 0.00 0.17 0.12 85 1007.5
20170422134132 47 300 3.0 14.0 0.00 0.17 0.12 84 1007.4
20170422134031 47 297 1.0 14.0 0.00 0.17 0.12 84 1007.6
20170422133932 47 306 2.0 14.0 0.00 0.17 0.12 83 1007.5
20170422133832 47 305 4.0 14.0 0.00 0.17 0.12 83 1007.5
20170422133732 47 307 3.0 14.0 0.00 0.17 0.12 81 1007.5
20170422133632 47 313 5.0 14.0 0.00 0.17 0.12 80 1007.5
20170422133432 47 298 5.0 14.0 0.00 0.17 0.12 80 1007.8
20170422133332 47 291 7.0 14.0 0.00 0.17 0.12 81 1007.8
20170422133031 47 316 3.0 12.0 0.00 0.17 0.12 81 1007.8
20170422132931 47 303 6.0 11.0 0.00 0.17 0.12 83 1007.7
20170422132832 47 311 7.0 11.0 0.00 0.17 0.12 83 1007.8
20170422132732 47 310 4.0 12.0 0.00 0.17 0.12 83 1007.8
20170422132231 47 314 7.0 14.0 0.00 0.17 0.12 83 1007.7
20170422132132 47 318 5.0 14.0 0.00 0.17 0.12 83 1007.6
20170422131932 47 304 4.0 14.0 0.00 0.17 0.12 83 1007.8
20170422131832 47 302 6.0 14.0 0.00 0.17 0.12 83 1007.6
20170422131732 47 305 5.0 15.0 0.00 0.17 0.12 83 1007.5
20170422131532 47 313 5.0 15.0 0.00 0.17 0.12 83 1007.6
20170422131432 47 316 6.0 15.0 0.00 0.17 0.12 83 1007.5
20170422131232 47 320 7.0 15.0 0.00 0.17 0.12 85 1007.5
20170422131132 47 326 5.0 15.0 0.00 0.17 0.12 85 1007.5
20170422131031 47 324 3.0 15.0 0.00 0.17 0.12 85 1007.4
20170422130932 47 326 5.0 15.0 0.00 0.17 0.12 84 1007.5
20170422130832 47 326 7.0 15.0 0.00 0.17 0.12 83 1007.6
20170422130732 47 321 10.0 15.0 0.00 0.17 0.12 83 1007.5
20170422130432 47 298 7.0 17.0 0.00 0.17 0.12 85 1007.7
20170422130232 47 309 3.0 17.0 0.00 0.17 0.12 85 1007.6
20170422130032 47 307 2.0 17.0 0.00 0.17 0.12 85 1007.7
20170422125931 47 313 2.0 17.0 0.00 0.17 0.12 85 1007.7
20170422125831 47 314 3.0 17.0 0.00 0.17 0.12 84 1007.7
20170422125632 47 312 7.0 17.0 0.00 0.17 0.12 84 1007.8
20170422125431 47 317 4.0 12.0 0.00 0.17 0.12 84 1007.7
20170422125231 47 296 5.0 12.0 0.00 0.17 0.12 84 1007.6
20170422124731 47 291 4.0 9.0 0.00 0.17 0.12 85 1007.7
20170422124532 47 286 2.0 9.0 0.00 0.17 0.12 85 1007.7
20170422124432 47 297 1.0 10.0 0.00 0.17 0.12 85 1007.7
20170422124332 47 310 3.0 10.0 0.00 0.17 0.12 85 1007.9
20170422124231 47 318 3.0 10.0 0.00 0.17 0.12 84 1007.6
20170422124031 47 316 7.0 10.0 0.00 0.17 0.12 85 1007.8
20170422123832 47 301 4.0 10.0 0.00 0.17 0.12 85 1007.8
20170422123331 47 277 5.0 11.0 0.00 0.17 0.12 85 1007.6
20170422123232 47 270 4.0 11.0 0.00 0.17 0.12 86 1007.7
20170422123132 47 266 6.0 11.0 0.00 0.17 0.12 86 1007.7
20170422122932 47 267 2.0 11.0 0.00 0.17 0.12 86 1007.8
20170422122831 47 270 1.0 11.0 0.00 0.17 0.12 85 1007.7
20170422122731 47 270 3.0 11.0 0.00 0.17 0.12 85 1007.6
20170422122631 47 267 6.0 11.0 0.00 0.17 0.12 86 1007.8
20170422122532 47 274 3.0 8.0 0.00 0.17 0.12 86 1007.6
20170422122232 47 274 4.0 9.0 0.00 0.17 0.12 86 1007.8
20170422122131 47 275 3.0 9.0 0.00 0.17 0.12 87 1007.7
20170422122032 47 273 3.0 9.0 0.00 0.17 0.12 87 1007.8
20170422121932 47 270 2.0 9.0 0.00 0.17 0.12 87 1007.5
20170422121732 47 271 3.0 9.0 0.00 0.17 0.12 87 1007.7
20170422121532 47 275 3.0 9.0 0.00 0.17 0.12 87 1007.8
20170422121432 47 276 2.0 9.0 0.00 0.17 0.12 87 1008.0
20170422121331 47 276 3.0 9.0 0.00 0.17 0.12 87 1008.2
20170422121131 47 278 3.0 7.0 0.00 0.17 0.12 88 1008.2
20170422120832 47 282 4.0 7.0 0.00 0.17 0.12 89 1008.2
20170422120531 47 281 2.0 5.0 0.00 0.17 0.12 91 1008.3
20170422120431 47 286 2.0 7.0 0.00 0.17 0.12 91 1008.5
20170422120232 47 286 2.0 7.0 0.00 0.17 0.12 91 1008.3
20170422120031 47 295 2.0 7.0 0.00 0.17 0.12 91 1008.4
20170422115832 47 292 3.0 7.0 0.00 0.17 0.12 92 1008.3
20170422115632 47 283 1.0 7.0 0.00 0.17 0.12 92 1008.2
20170422115432 46 277 4.0 7.0 0.00 0.17 0.12 93 1008.5
20170422115232 46 281 3.0 6.0 0.00 0.17 0.12 93 1008.5
20170422115132 47 283 2.0 6.0 0.00 0.17 0.12 93 1008.5
20170422115032 47 284 1.0 6.0 0.00 0.17 0.12 92 1008.5
20170422114831 46 283 2.0 6.0 0.00 0.17 0.12 92 1008.6
20170422114731 47 284 3.0 6.0 0.00 0.17 0.12 92 1008.4
20170422114532 47 284 1.0 6.0 0.00 0.17 0.12 92 1008.4
20170422114432 46 284 3.0 6.0 0.00 0.17 0.12 93 1008.3
20170422114331 47 286 2.0 6.0 0.00 0.17 0.12 93 1008.3
20170422114231 46 279 3.0 6.0 0.00 0.17 0.12 93 1008.2
20170422114032 46 265 1.0 6.0 0.00 0.17 0.12 93 1008.3
20170422113832 47 266 2.0 6.0 0.00 0.17 0.12 93 1008.2
20170422113731 46 261 3.0 6.0 0.00 0.17 0.12 92 1008.3
20170422113432 46 275 3.0 6.0 0.00 0.17 0.12 93 1008.3
20170422113131 46 284 4.0 6.0 0.00 0.17 0.12 92 1008.5
20170422112832 46 283 3.0 5.0 0.00 0.17 0.12 93 1008.4
20170422112631 46 321 3.0 9.0 0.00 0.17 0.12 94 1008.7
20170422112531 46 323 4.0 9.0 0.00 0.17 0.12 95 1008.3
20170422112232 46 308 1.0 11.0 0.00 0.17 0.12 94 1008.4
20170422111931 47 310 1.0 11.0 0.00 0.17 0.12 94 1008.1
20170422111831 46 314 4.0 11.0 0.00 0.17 0.12 95 1008.2
20170422111732 46 303 5.0 11.0 0.00 0.17 0.12 95 1008.1
20170422111632 46 293 1.0 11.0 0.00 0.17 0.12 95 1008.2
20170422111532 47 290 1.0 11.0 0.00 0.17 0.12 95 1008.3
20170422111431 46 287 1.0 11.0 0.00 0.17 0.12 95 1008.1
20170422111232 46 291 3.0 8.0 0.00 0.17 0.12 96 1008.2
20170422111132 46 287 5.0 8.0 0.00 0.17 0.12 97 1008.1
20170422111031 46 274 1.0 6.0 0.00 0.17 0.12 96 1008.0
20170422110931 46 273 0.0 6.0 0.00 0.17 0.12 96 1008.0
20170422110831 46 273 3.0 6.0 0.00 0.17 0.12 97 1008.2
20170422110732 46 280 2.0 6.0 0.00 0.17 0.12 97 1008.0
20170422110531 46 254 3.0 9.0 0.00 0.17 0.12 97 1008.1
20170422110431 46 258 3.0 9.0 0.00 0.17 0.12 97 1007.8
20170422110331 46 265 2.0 9.0 0.00 0.17 0.12 97 1008.1
20170422105432 46 273 3.0 5.0 0.00 0.17 0.12 97 1007.5
20170422105332 46 273 4.0 6.0 0.00 0.17 0.12 97 1007.7
20170422105131 46 277 1.0 6.0 0.00 0.17 0.12 97 1007.5
20170422105032 46 284 1.0 6.0 0.00 0.17 0.12 97 1007.4
20170422104932 46 289 3.0 6.0 0.00 0.17 0.12 97 1007.4
20170422104632 46 297 1.0 6.0 0.00 0.17 0.12 97 1007.4
20170422104532 46 298 2.0 6.0 0.00 0.17 0.12 97 1007.4
20170422104431 46 300 1.0 6.0 0.00 0.17 0.12 97 1007.6
20170422104331 46 308 4.0 6.0 0.00 0.17 0.12 97 1007.7
20170422104132 46 297 2.0 5.0 0.00 0.17 0.12 97 1007.6
20170422104032 46 293 3.0 5.0 0.00 0.17 0.12 97 1007.7
20170422103931 46 284 2.0 5.0 0.00 0.17 0.12 97 1007.7
20170422103731 46 275 2.0 5.0 0.00 0.17 0.12 97 1007.8
20170422103632 46 270 1.0 5.0 0.00 0.17 0.12 97 1007.4
20170422103331 46 274 1.0 5.0 0.00 0.17 0.12 97 1007.7
20170422103232 46 278 2.0 7.0 0.00 0.17 0.12 97 1007.7
20170422103032 46 278 1.0 7.0 0.00 0.17 0.12 97 1007.4
20170422102831 46 278 3.0 7.0 0.00 0.17 0.12 97 1007.5
20170422102732 46 279 3.0 7.0 0.00 0.17 0.12 97 1007.5
20170422102632 46 280 1.0 7.0 0.00 0.17 0.12 97 1007.5
20170422102331 46 271 1.0 7.0 0.00 0.17 0.12 97 1007.4
20170422102231 46 268 3.0 4.0 0.00 0.17 0.12 97 1007.5
20170422101831 46 272 1.0 4.0 0.00 0.17 0.12 97 1007.5
20170422101631 46 271 1.0 5.0 0.00 0.17 0.12 97 1007.4
20170422101232 46 276 1.0 5.0 0.00 0.17 0.12 97 1007.8
20170422101132 46 272 2.0 5.0 0.00 0.17 0.12 97 1007.8
20170422101032 46 270 1.0 5.0 0.00 0.17 0.12 97 1007.8
20170422100832 46 267 1.0 5.0 0.00 0.17 0.12 97 1007.7
20170422100731 46 266 3.0 5.0 0.00 0.17 0.12 97 1007.5
20170422100631 46 267 3.0 5.0 0.00 0.17 0.12 97 1007.6
20170422100432 46 266 3.0 5.0 0.00 0.17 0.12 97 1007.3
20170422100232 46 265 3.0 5.0 0.00 0.17 0.12 97 1007.4
20170422100132 46 264 3.0 5.0 0.00 0.17 0.12 97 1007.2
20170422100031 46 264 3.0 5.0 0.00 0.17 0.12 97 1007.4
20170422095932 46 263 3.0 5.0 0.00 0.17 0.12 97 1007.4
20170422095732 46 270 1.0 3.0 0.00 0.17 0.12 97 1007.4
20170422095431 46 268 1.0 3.0 0.00 0.17 0.12 97 1007.3
20170422095332 46 275 1.0 3.0 0.00 0.17 0.12 97 1007.5
20170422095232 46 261 1.0 4.0 0.00 0.17 0.12 97 1007.6
20170422095132 46 224 1.0 6.0 0.00 0.17 0.12 97 1007.5
20170422094832 46 350 1.0 6.0 0.00 0.17 0.12 97 1007.8
20170422094732 46 241 1.0 6.0 0.00 0.17 0.12 97 1007.7
20170422094632 46 224 0.0 6.0 0.00 0.17 0.12 97 1007.5
20170422094531 46 259 2.0 6.0 0.00 0.17 0.12 97 1007.5
20170422094431 46 262 2.0 6.0 0.00 0.17 0.12 97 1007.7
20170422094332 46 258 0.0 6.0 0.00 0.17 0.12 97 1007.7
20170422094232 46 267 3.0 6.0 0.00 0.17 0.12 97 1007.5
20170422094031 46 270 3.0 5.0 0.00 0.17 0.12 97 1007.5
20170422093931 46 271 1.0 5.0 0.00 0.17 0.12 97 1007.4
20170422093832 46 268 1.0 5.0 0.00 0.17 0.12 97 1007.4
20170422093732 46 270 3.0 5.0 0.00 0.17 0.12 97 1007.2
20170422093531 46 270 1.0 5.0 0.00 0.17 0.12 97 1007.2
20170422093431 46 270 3.0 5.0 0.00 0.17 0.12 97 1007.1
20170422093232 46 268 1.0 4.0 0.00 0.17 0.12 97 1006.9
20170422093132 46 268 1.0 4.0 0.00 0.17 0.12 97 1006.9
20170422092931 46 263 1.0 4.0 0.00 0.17 0.12 97 1006.9
20170422092831 46 262 3.0 4.0 0.00 0.17 0.12 97 1006.8
20170422092732 46 262 1.0 4.0 0.00 0.17 0.12 97 1006.7
20170422092632 46 263 2.0 6.0 0.00 0.17 0.12 97 1006.6
20170422092532 46 273 1.0 6.0 0.00 0.17 0.12 97 1006.5
20170422092131 46 282 0.0 6.0 0.00 0.17 0.12 97 1006.2
20170422092032 46 285 1.0 6.0 0.00 0.17 0.12 97 1006.1
20170422091932 46 296 2.0 7.0 0.00 0.17 0.12 97 1005.8
20170422091731 46 306 1.0 7.0 0.00 0.17 0.12 97 1005.9
20170422091631 46 304 5.0 7.0 0.00 0.17 0.12 97 1006.0
20170422091532 46 299 2.0 7.0 0.00 0.17 0.12 97 1006.0
20170422091332 46 287 2.0 8.0 0.00 0.17 0.12 97 1005.9
20170422091231 46 287 1.0 8.0 0.00 0.17 0.12 97 1005.9
20170422091131 46 288 3.0 8.0 0.00 0.17 0.12 97 1006.1
20170422091032 46 285 2.0 8.0 0.00 0.17 0.12 97 1005.9
20170422090932 46 276 4.0 8.0 0.00 0.17 0.12 97 1006.0
20170422090831 46 270 1.0 8.0 0.00 0.17 0.12 97 1005.7
20170422090731 46 268 3.0 8.0 0.00 0.17 0.12 97 1006.0
20170422090631 46 268 3.0 8.0 0.00 0.17 0.12 97 1006.1
20170422090332 46 267 2.0 6.0 0.00 0.17 0.12 99 1006.1
20170422090232 46 267 2.0 6.0 0.00 0.17 0.12 97 1006.4
20170422090031 46 270 3.0 6.0 0.00 0.17 0.12 97 1006.6
20170422085932 46 276 2.0 5.0 0.00 0.17 0.12 97 1006.6
20170422085832 46 276 0.0 5.0 0.00 0.17 0.12 97 1006.5
20170422085632 46 284 4.0 5.0 0.00 0.17 0.12 99 1006.5
20170422085531 46 285 1.0 6.0 0.00 0.17 0.12 97 1006.5
20170422085031 46 286 1.0 6.0 0.00 0.17 0.12 97 1006.6
20170422084831 46 277 1.0 6.0 0.00 0.18 0.12 97 1006.7
20170422084731 46 281 2.0 6.0 0.00 0.18 0.12 97 1006.7
20170422084532 46 274 1.0 3.0 0.00 0.18 0.12 97 1006.8
20170422084431 46 275 1.0 3.0 0.00 0.18 0.12 97 1006.8
20170422084331 46 275 1.0 3.0 0.00 0.18 0.12 97 1006.8
20170422084031 46 288 2.0 3.0 0.00 0.18 0.12 99 1006.8
20170422083932 46 293 1.0 3.0 0.00 0.18 0.12 99 1006.9
20170422083431 46 293 0.0 4.0 0.00 0.18 0.12 99 1007.2
20170422083132 46 281 1.0 4.0 0.00 0.18 0.12 99 1007.2
20170422082831 46 270 0.0 4.0 0.00 0.18 0.12 97 1007.2
20170422082632 46 270 0.0 4.0 0.00 0.18 0.12 97 1006.9
20170422082231 46 270 3.0 3.0 0.00 0.18 0.12 97 1007.1
20170422082032 46 270 2.0 3.0 0.00 0.18 0.12 97 1007.0
20170422081932 46 270 3.0 3.0 0.00 0.18 0.12 97 1007.3
20170422081731 46 270 0.0 3.0 0.00 0.18 0.12 97 1007.4
20170422081332 46 270 0.0 1.0 0.00 0.18 0.12 97 1006.9
20170422081131 46 270 0.0 1.0 0.00 0.18 0.12 97 1006.9
20170422080931 47 270 0.0 1.0 0.00 0.18 0.12 99 1006.9
20170422080832 46 284 0.0 1.0 0.00 0.18 0.12 99 1006.9
20170422080632 47 1 0.0 1.0 0.00 0.18 0.12 99 1006.7
20170422080431 47 296 0.0 1.0 0.00 0.18 0.12 99 1007.0
20170422080132 47 289 0.0 3.0 0.00 0.18 0.12 99 1006.8
20170422075932 47 285 0.0 5.0 0.00 0.18 0.12 99 1006.7
20170422075831 47 282 0.0 5.0 0.00 0.18 0.12 99 1006.6
20170422075532 47 292 0.0 5.0 0.00 0.18 0.12 99 1006.7
20170422075432 47 290 0.0 5.0 0.00 0.18 0.12 99 1006.5
20170422075332 47 288 0.0 5.0 0.00 0.18 0.12 99 1006.5
20170422075231 47 289 0.0 5.0 0.00 0.18 0.12 99 1006.5
20170422075031 46 284 3.0 5.0 0.00 0.18 0.12 99 1006.3
20170422074631 46 291 2.0 5.0 0.00 0.18 0.12 99 1006.3
20170422074431 46 279 1.0 5.0 0.00 0.18 0.12 99 1006.1
20170422074332 47 290 1.0 6.0 0.00 0.18 0.12 99 1006.3
20170422074132 46 287 1.0 6.0 0.00 0.18 0.12 99 1006.2
20170422074031 47 290 2.0 6.0 0.00 0.18 0.12 99 1006.3
20170422073831 46 291 1.0 6.0 0.01 0.18 0.12 99 1006.2
20170422073532 46 289 3.0 6.0 0.01 0.18 0.12 99 1006.5
20170422073431 47 289 2.0 8.0 0.01 0.23 0.12 99 1006.3
20170422073331 47 277 2.0 8.0 0.01 0.23 0.12 99 1006.2
20170422073132 47 283 3.0 8.0 0.01 0.23 0.12 99 1006.3
20170422073032 47 279 1.0 8.0 0.01 0.23 0.12 99 1006.5
20170422072831 47 276 1.0 8.0 0.01 0.24 0.12 99 1006.7
20170422072731 47 276 1.0 8.0 0.01 0.24 0.12 99 1006.7
20170422072632 46 275 4.0 8.0 0.01 0.24 0.12 99 1006.7
20170422072332 47 289 0.0 3.0 0.01 0.24 0.12 99 1006.5
20170422072032 47 282 2.0 3.0 0.01 0.24 0.12 99 1006.5
20170422071831 47 284 1.0 3.0 0.01 0.24 0.12 99 1006.6
20170422071731 47 278 1.0 5.0 0.02 0.24 0.12 99 1006.4
20170422071531 47 267 2.0 5.0 0.02 0.24 0.12 99 1006.6
20170422071432 47 269 1.0 7.0 0.02 0.24 0.12 99 1006.4
20170422071332 47 276 1.0 7.0 0.02 0.24 0.12 99 1006.6
20170422071232 47 283 1.0 7.0 0.02 0.24 0.12 99 1006.5
20170422070632 47 284 1.0 7.0 0.02 0.24 0.12 99 1006.5
20170422070231 47 267 1.0 7.0 0.02 0.24 0.12 99 1006.8
20170422070132 47 267 3.0 7.0 0.02 0.24 0.12 99 1006.9
20170422070032 47 266 2.0 7.0 0.02 0.24 0.12 99 1007.1
20170422065931 47 258 3.0 7.0 0.02 0.24 0.12 99 1006.9
20170422065831 47 262 1.0 4.0 0.02 0.24 0.12 99 1007.2
20170422065731 47 262 0.0 4.0 0.02 0.24 0.12 99 1007.3
20170422065632 47 261 0.0 4.0 0.04 0.24 0.12 99 1007.1
20170422065532 47 260 1.0 4.0 0.04 0.24 0.12 99 1007.0
20170422065331 47 260 1.0 5.0 0.04 0.24 0.12 99 1007.1
20170422065231 47 261 1.0 5.0 0.04 0.24 0.12 99 1007.1
20170422065032 47 264 3.0 7.0 0.04 0.24 0.12 99 1007.0
20170422064932 47 270 0.0 7.0 0.04 0.24 0.12 99 1007.0
20170422064631 47 277 0.0 7.0 0.04 0.24 0.12 99 1006.9
20170422064531 47 276 0.0 7.0 0.04 0.24 0.12 99 1006.9
20170422064432 47 274 1.0 7.0 0.04 0.24 0.12 99 1006.9
20170422064332 47 274 3.0 7.0 0.04 0.24 0.12 99 1006.7
20170422064131 47 277 5.0 7.0 0.04 0.24 0.12 99 1006.7
20170422064031 47 278 3.0 5.0 0.02 0.23 0.11 99 1006.8
20170422063931 47 283 2.0 5.0 0.02 0.23 0.11 99 1006.9
20170422063832 47 287 1.0 5.0 0.02 0.23 0.11 99 1006.9
20170422063532 47 277 1.0 5.0 0.02 0.23 0.11 99 1006.9
20170422063433 47 285 1.0 7.0 0.02 0.23 0.11 99 1006.8
20170422063032 47 285 3.0 7.0 0.02 0.23 0.11 99 1006.9
20170422062932 47 280 2.0 7.0 0.02 0.23 0.11 99 1007.1
20170422062831 47 281 2.0 7.0 0.02 0.23 0.11 99 1006.9
20170422062631 47 285 2.0 7.0 0.02 0.23 0.11 99 1007.0
20170422062532 47 286 5.0 7.0 0.02 0.23 0.11 99 1007.0
20170422062331 47 280 1.0 6.0 0.02 0.23 0.11 99 1007.1
20170422062131 47 278 2.0 6.0 0.02 0.23 0.11 99 1007.2
20170422062031 47 278 1.0 6.0 0.02 0.23 0.11 99 1007.2
20170422061832 47 277 2.0 6.0 0.02 0.23 0.11 99 1007.2
20170422061732 47 281 3.0 6.0 0.01 0.22 0.09 99 1007.0
20170422061631 47 281 2.0 6.0 0.01 0.22 0.09 99 1006.9
20170422061531 47 282 4.0 6.0 0.01 0.22 0.09 99 1007.0
20170422061431 47 283 2.0 6.0 0.01 0.22 0.09 99 1007.2
20170422061331 47 284 1.0 6.0 0.02 0.22 0.09 99 1007.3
20170422060831 47 285 2.0 6.0 0.02 0.22 0.09 99 1007.1
20170422060732 47 277 3.0 6.0 0.02 0.22 0.09 99 1007.3
20170422060632 47 270 1.0 2.0 0.02 0.22 0.09 99 1007.3
20170422060231 47 279 1.0 6.0 0.02 0.22 0.09 99 1007.3
20170422060031 47 278 1.0 6.0 0.02 0.22 0.09 99 1007.7
20170422055831 47 277 0.0 6.0 0.02 0.22 0.09 99 1007.5
20170422055731 47 279 0.0 6.0 0.02 0.22 0.09 99 1007.5
20170422055632 47 278 0.0 6.0 0.01 0.20 0.08 99 1007.6
20170422055431 47 280 0.0 6.0 0.02 0.20 0.08 99 1007.4
20170422055231 48 280 0.0 5.0 0.02 0.20 0.08 99 1007.4
20170422055131 47 280 1.0 5.0 0.02 0.20 0.08 99 1007.2
20170422054932 48 278 3.0 5.0 0.02 0.20 0.08 99 1007.4
20170422054832 47 280 2.0 4.0 0.02 0.20 0.08 99 1007.3
20170422054731 48 279 1.0 4.0 0.04 0.20 0.08 99 1007.3
20170422054531 47 292 1.0 9.0 0.04 0.20 0.08 99 1007.4
20170422054332 47 291 1.0 9.0 0.04 0.20 0.08 99 1007.4
20170422054131 48 291 1.0 9.0 0.04 0.20 0.08 99 1007.3
20170422054031 47 292 1.0 9.0 0.04 0.20 0.08 99 1007.2
20170422053931 48 292 3.0 9.0 0.04 0.20 0.08 99 1007.1
20170422053831 48 288 2.0 9.0 0.04 0.20 0.08 99 1007.0
20170422053731 47 289 2.0 9.0 0.04 0.20 0.08 99 1007.3